Find STARLINK-38032

NORAD ID: 799501197 Int'l Des: 2026-160V Constellation: starlink operational

現在のビュー

3D地球を読み込み中...

About STARLINK-38032

STARLINK-38032 (NORAD 799501197) is a starlink constellation satellite launched Jul 9, 2026

STARLINK-38032について

説明を読み込み中...

次回通過

Passes for default location (London). Set your location on the main map for personalized predictions.

高度履歴

Loading altitude history...

軌道要素

1 99999C 2026160V 26195.36159721 .00887470 00000-0 110930-3 0 1958
2 99999 70.0018 28.6966 0010281 259.5357 161.1653 16.06866620 13
Epoch: Jul 14, 2026 • Age: 8 hours